{"data":{"norad_id":66549,"intl_designator":"2025-277A","name":"SHIJIAN-28 (SJ-28)","alt_names":[],"object_type":"PAYLOAD","status":"ACTIVE","operator":null,"country":"PRC","launch_date":"2025-11-30","launch_site_code":"WSC","launch_vehicle":null,"mission":null,"orbit_class":"UNKNOWN","rcs_meters":null,"size_class":null,"mass_kg":null,"dimensions":null,"purposes":["comms"],"wikipedia_slug":null,"has_3d_model":false,"image_url":null,"decayed_at":null,"tle_current":{"epoch":"2026-05-24T21:27:18.485280Z","epoch_age_seconds":87371,"freshness":"FRESH","line1":"1 66549U 25277A   26144.89396395 -.00000367  00000+0  00000+0 0  9997","line2":"2 66549   4.5968 272.5042 0000888  26.9681  21.6908  1.00276235  1926","mean_motion":1.00276235,"eccentricity":8.88e-5,"inclination_deg":4.5968,"raan_deg":272.5042,"arg_perigee_deg":26.9681,"mean_anomaly_deg":21.6908,"bstar":0,"rev_number":192,"period_min":1436.0331737625,"perigee_km":35781.603393361,"apogee_km":35789.09162821,"semimajor_km":42163.484510785,"source":"CELESTRAK","updated_at":"2026-05-25T13:38:14.156311Z"}}}